Date,TemperatureHighF,TemperatureAvgF,TemperatureLowF,DewpointHighF,DewpointAvgF,DewpointLowF,HumidityHigh,HumidityAvg,HumidityLow,PressureMaxIn,PressureMinIn,WindSpeedMaxMPH,WindSpeedAvgMPH,GustSpeedMaxMPH,PrecipitationSumIn
2013-2-1,28.9,20.0,9.0,16.4,9.8,1.5,79,65,52,30.54,30.19,12,2,12,0.00
2013-2-2,53.6,40.3,27.1,35.9,28.3,15.4,77,63,49,30.25,30.11,12,1,12,0.06
2013-2-3,52.0,42.3,31.4,30.9,25.4,18.3,80,53,30,30.31,29.82,14,2,14,0.00
2013-2-4,48.2,39.2,27.7,31.6,27.4,23.3,84,63,45,30.01,29.78,13,1,13,0.00
2013-2-5,62.9,42.1,25.7,34.0,27.7,22.4,89,61,30,30.10,29.92,8,1,8,0.00
2013-2-6,62.4,49.5,31.6,48.0,36.4,25.9,80,62,40,30.10,29.83,13,3,13,0.00
2013-2-7,54.9,45.9,32.6,46.7,38.7,26.8,95,77,56,30.24,29.83,11,2,11,0.44
2013-2-8,45.2,35.7,29.6,31.7,28.1,24.8,87,75,54,30.37,30.20,12,2,12,0.00
2013-2-9,52.7,40.0,31.0,39.0,33.0,27.9,89,77,54,30.22,29.71,19,4,19,0.00
2013-2-10,49.7,44.0,37.9,45.1,33.9,24.9,95,69,46,29.94,29.44,22,4,22,0.08
2013-2-11,50.7,38.6,30.3,26.5,23.4,20.9,73,56,34,30.19,29.94,10,2,10,0.00
2013-2-12,43.5,34.6,25.9,26.5,23.2,20.8,83,64,44,30.20,29.99,5,0,5,0.00
2013-2-13,58.7,42.3,28.0,28.4,24.7,22.6,81,54,27,29.99,29.82,14,1,14,0.00
2013-2-14,51.5,42.7,33.2,33.8,27.4,22.3,77,56,35,30.23,29.85,15,1,15,0.00
2013-2-15,42.9,31.8,20.3,29.0,18.6,9.4,89,61,31,30.43,30.22,10,1,10,0.00
2013-2-16,39.4,31.3,21.5,24.8,20.0,14.8,87,65,41,30.36,30.07,12,2,12,0.01
2013-2-17,60.4,44.7,27.5,34.9,26.8,17.2,69,51,34,30.07,29.61,15,3,15,0.00
2013-2-18,56.1,43.9,28.3,44.2,29.9,17.9,72,58,42,30.11,29.47,22,3,22,0.00
2013-2-19,40.3,30.1,23.7,18.6,10.2,-0.2,75,47,21,30.40,30.11,11,1,11,0.00
2013-2-20,26.9,22.3,17.4,13.8,7.6,2.8,60,53,44,30.41,30.19,15,3,15,0.00
2013-2-21,26.9,24.1,20.5,25.4,20.3,13.4,94,86,60,30.23,29.80,21,4,21,0.00
2013-2-22,32.7,24.2,17.0,26.2,20.0,13.4,93,84,71,30.13,29.85,12,1,12,0.05
2013-2-23,37.7,24.9,10.7,25.7,18.4,7.7,89,77,59,30.13,29.96,8,1,8,0.00
2013-2-24,47.6,34.3,19.9,28.7,24.4,17.3,92,69,46,30.04,29.90,11,2,11,0.00
2013-2-25,37.3,34.9,32.0,31.9,28.5,25.3,94,77,69,29.99,29.75,15,3,15,0.02
2013-2-26,35.3,33.4,31.2,31.8,30.6,29.0,94,89,84,29.91,29.69,13,2,13,0.01
2013-2-27,43.3,34.6,29.2,29.4,27.4,25.1,93,76,54,30.11,29.89,13,2,13,0.02
2013-2-28,34.6,32.7,30.2,27.3,26.0,23.9,81,76,71,30.25,30.10,10,1,10,0.00